User: anonymous   Login
Location: Arbon
(43.0005°N, 0.7472°E)
Time: 12:32:40
(UTC+00:00)
Language:

Cosmos 724 - Orbit

View from above orbital plane
View from above orbital plane
View from above satellite
View from above satellite

Ground track
Ground track

The orbit data is extracted from the following two-line orbital elements,

1  7727U 75025A   20293.61623189 -.00000063 +00000-0 +17039-4 0  9998
2  7727 065.5918 024.7602 0059707 341.9085 017.9862 13.98925826326870
Epoch (UTC): 19 October 2020 14:47:22
Eccentricity: 0.0059707
inclination: 65.5918°
perigee height: 854 km
apogee height: 941 km
right ascension of ascending node: 24.7602°
argument of perigee: 341.9085°
revolutions per day: 13.98925826
mean anomaly at epoch: 17.9862°
orbit number at epoch: 32687

The dashed part of the orbit path shows where the satellite is in the earth's shadow,  

DLR